Location: Sangarr�n
(42.0192°N, 0.4332°W)
Time: 13:41:00
(UTC+00:00)

Daily predictions for brighter satellites

Satellite Brightness Start Highest point End
(mag) Time Altitude Azimuth Time Altitude Azimuth Time Altitude Azimuth
USA 229 DEB 3.9 16:54:03 10° SW 17:00:36 74° NW 17:07:28 10° NNE
USA 229 3.9 16:54:10 10° SW 17:00:42 75° NW 17:07:34 10° NNE
NOSS 3-1 (C) 3.5 16:58:31 10° SW 17:03:59 74° NW 17:10:18 10° NNE
Lacrosse 4 Rocket 1.3 17:00:30 10° SSW 17:04:32 68° ESE 17:08:34 10° NNE
ASTEX 1 3.8 17:00:53 10° N 17:05:52 70° W 17:10:48 10° SSW
NOSS 3-1 (A) 3.3 17:00:29 10° SSW 17:05:54 75° ESE 17:12:09 10° NE
ERBS 3.3 17:02:47 10° WSW 17:05:56 40° NW 17:09:08 10° NNE
Okean-O 3.5 17:02:51 10° SE 17:06:40 29° ENE 17:10:29 10° N
NOSS 2-3 (D) 4.1 17:03:23 10° S 17:07:27 45° ESE 17:12:05 10° NE
SeaSat 1 3.6 17:04:20 10° E 17:08:06 22° NE 17:11:52 10° N
Meteor 2-20 4.5 17:08:11 10° S 17:14:17 82° E 17:20:28 10° N
Cosmos 1633 Rocket 3.6 17:17:21 10° N 17:21:28 37° ENE 17:25:33 10° SE
Envisat 3.5 17:17:39 10° SE 17:22:14 36° ENE 17:26:51 10° N
Cosmos 1862 3.8 17:18:59 10° N 17:22:45 39° ENE 17:26:29 10° SSE
Cosmos 1151 Rocket 3.9 17:20:29 10° SSE 17:24:14 29° E 17:28:00 10° NNE
ALOS 4.4 17:20:46 10° SSW 17:24:53 31° W 17:29:02 10° NNW
CORIOLIS 4.1 17:21:10 10° SSE 17:26:31 67° ENE 17:31:55 10° N
Okean O Rocket 3.7 17:23:24 10° SSW 17:27:18 31° W 17:31:14 10° NNW
Sich 1 3.0 17:22:59 10° N 17:27:21 73° E 17:31:44 10° SSE
SMAP 3.0 17:24:54 10° SSE 17:29:33 85° ENE 17:34:14 10° NNW
Cosmos 1328 Rocket 4.0 17:29:45 10° SSE 17:33:52 40° E 17:37:59 10° NNE
Cosmos 1666 Rocket 3.5 17:32:22 10° N 17:36:43 67° E 17:41:01 10° SSE
SL-16 R/B 3.8 17:34:53 10° SE 17:37:34 14° E 17:38:08 13° E
Cosmos 1980 Rocket 2.5 17:32:34 10° S 17:37:59 48° ESE 17:43:26 10° NE
Cosmos 1515 Rocket 4.5 17:34:37 10° SSE 17:38:20 27° E 17:42:02 10° NNE
COSMO-SKYMED 1 3.2 17:35:49 10° NNE 17:39:49 35° E 17:43:48 10° SSE
BREEZE-M DEB (TANK) 4.5 17:35:46 10° WSW 17:39:52 68° NNW 17:51:52 14° ENE
Cosmos 158 Rocket 4.4 17:36:59 10° S 17:41:56 41° ESE 17:46:47 10° NE
Cosmos 2322 Rocket 3.9 17:42:21 10° ESE 17:44:20 13° ESE 17:44:20 13° ESE
NOSS 2-3 (C) 3.8 17:40:53 10° SW 17:45:12 78° NW 17:50:10 10° NNE
Cosmos 1633 2.6 17:41:40 10° N 17:45:19 83° W 17:48:55 10° S
COBE Rocket 3.7 17:40:36 10° NNE 17:45:22 85° E 17:50:02 10° S
Cosmos 2297 Rocket 3.4 17:40:41 10° NW 17:46:03 46° WSW 17:51:25 10° S
Cosmos 2227 Rocket 3.3 17:41:16 10° NW 17:46:43 49° WSW 17:52:07 10° S
NOAA 12 4.0 17:41:30 10° SSE 17:46:49 75° ENE 17:52:09 10° N
Cosmos 1371 Rocket 4.2 17:42:04 10° N 17:47:04 45° ENE 17:52:00 10° SE
Cosmos 1891 Rocket 4.5 17:40:57 10° N 17:47:18 83° E 17:53:28 10° S
Cosmos 1464 Rocket 3.9 17:41:52 10° N 17:48:02 84° E 17:54:10 10° S
Geosat 4.0 17:45:05 10° NNE 17:50:07 67° ESE 17:55:06 10° SSW
GEOS 3 Rocket 3.6 17:49:26 11° NE 17:54:29 85° SE 17:59:46 10° SW
H-2A R/B 3.9 17:55:11 10° S 17:58:53 46° W 18:02:34 10° NNW
Cosmos 2112 Rocket 4.0 17:53:51 10° SSW 17:59:02 88° WNW 18:04:19 10° NNE
Cosmos 1932 4.5 17:55:26 10° NNW 18:01:59 71° NE 18:08:30 10° SE
YAOGAN 1 3.0 17:58:16 10° SE 18:02:17 38° ENE 18:06:19 10° N
Cosmos 2263 Rocket 3.0 17:57:51 10° N 18:02:38 28° NE 18:04:09 25° E
SKYMED 3 4.5 17:59:39 10° NNE 18:04:00 66° E 18:08:18 10° S
Cosmos 1680 Rocket 3.8 17:59:42 10° SSW 18:04:53 68° WNW 18:10:07 10° NNE
GPS 2-04 Rocket1 3.9 18:02:31 10° SW 18:05:23 24° S 18:06:34 20° SE
Ariane Rocket 4.4 18:06:44 20° NE 18:06:44 20° NE 18:09:16 10° NNE
Cosmos 397 4.5 18:01:58 10° NNW 18:06:01 83° WSW 18:10:27 10° SSE
Cosmos 1470 Rocket 3.5 18:03:35 10° N 18:08:04 65° E 18:12:29 10° SSE
ATLAS 5 CENTAUR R/B 4.4 18:03:17 10° NW 18:08:35 32° WSW 18:14:27 10° S
Meteor 2-11 Rocket 4.4 18:03:01 10° N 18:09:10 86° E 18:15:19 10° S
COSMOS 2455 4.3 18:07:02 10° SE 18:09:52 18° ESE 18:09:52 18° ESE
Cosmos 2346 Rocket 4.4 18:07:24 10° S 18:13:38 82° E 18:19:50 10° N
Cosmos 1697 Rocket 3.6 18:10:26 10° SW 18:15:51 47° WNW 18:21:19 10° NNE
APEX 3.4 18:13:30 10° SW 18:16:55 52° WNW 18:18:12 29° N
FengYun 1-2 T 4.1 18:14:19 10° SSE 18:19:49 89° E 18:25:21 10° NNW
YAOGAN 6 2.4 18:17:27 10° S 18:20:56 84° W 18:24:26 10° NNW
SKYMED 2 3.9 18:23:42 10° N 18:28:02 67° WNW 18:32:20 10° SSW
GENESIS II 4.1 18:28:51 10° SSW 18:32:52 84° ESE 18:33:20 69° NE
USA 215 4.1 18:33:21 28° NE 18:34:56 31° NNE 18:40:29 10° NW
CZ-4 R/B 1.7 18:32:14 10° S 18:36:22 66° W 18:40:25 10° NNW
Cosmos 1624 Rocket 4.2 18:32:13 10° NNW 18:37:34 75° WSW 18:42:51 10° SSE
Cosmos 2056 Rocket 3.6 18:33:28 10° NNW 18:38:37 75° WSW 18:43:48 10° SSE
Lacrosse 4 Rocket 4.1 18:41:34 10° WNW 18:43:39 14° NW 18:45:45 10° NNW
SeaSat 1 3.0 18:40:25 10° SSE 18:45:15 57° WSW 18:50:07 10° NW
Cosmos 2227 4.1 18:43:48 10° NNW 18:49:36 87° ENE 18:52:42 29° SSE
Meteor 1-26 Rocket 4.2 18:46:21 10° S 18:52:21 82° E 18:56:32 21° NNE
CSL-04 Debris 4.5 18:47:27 10° S 18:52:54 68° WSW 18:58:24 10° NNW
NOAA 11 4.0 18:47:35 10° SSE 18:53:00 84° ENE 18:58:28 10° NNW
Cosmos 1933 4.3 18:50:40 10° SSW 18:54:35 46° WNW 18:56:25 27° NNW
Cosmos 1606 3.7 18:55:59 10° SSW 18:59:22 45° W 18:59:22 45° W
Cosmos 1634 Rocket 4.0 18:58:47 10° N 19:04:59 80° W 19:11:08 10° S
CSL-04 Rocket 4.3 18:59:57 10° S 19:05:08 52° W 19:10:20 10° NNW
Cosmos 2228 Rocket 3.9 19:01:02 10° SSW 19:05:22 51° W 19:06:42 38° NNW
SL-8 R/B 4.2 19:06:37 10° WSW 19:10:40 59° W 19:10:40 59° W
Cosmos 2142 Rocket 4.4 19:08:08 10° N 19:14:34 87° W 19:20:54 10° S
Cosmos 1420 Rocket 4.5 19:14:41 10° NNW 19:18:48 54° NW 19:18:48 54° NW
Timation 1 Rocket 4.3 19:14:12 10° NNW 19:20:00 80° WNW 19:20:00 80° WNW
SL-16 R/B 2.4 19:15:12 10° SSW 19:20:03 66° SW 19:20:03 66° SW
Cosmos 1980 Rocket 4.0 19:17:27 10° WSW 19:22:13 27° NW 19:25:47 15° N
Cosmos 2279 Rocket 4.4 19:17:04 10° N 19:21:39 52° N 19:21:39 52° N
CENTAUR R/B 4.0 19:19:01 10° NNW 19:24:25 31° NNE 19:24:25 31° NNE
Cosmos 2322 Rocket 2.9 19:22:26 10° SSW 19:26:13 45° SSW 19:26:13 45° SSW
ATLAS 2AS CENTAUR R/B 4.3 19:31:23 10° S 19:34:21 24° S 19:34:21 24° S
USA 238 DEB 4.4 19:39:27 10° NNW 19:44:27 47° NNW 19:44:27 47° NNW
Cosmos 2263 Rocket 3.3 19:41:28 10° NW 19:45:55 41° W 19:45:55 41° W
USA 238 4.4 19:39:33 10° NNW 19:44:32 46° NNW 19:44:32 46° NNW
ATLAS 3B R/B 4.4 19:41:57 10° NNW 19:44:18 20° N 19:44:18 20° N
NOSS 3-2 (A) 4.5 19:43:16 10° NNW 19:48:38 49° N 19:48:38 49° N
COSMOS 2455 4.3 19:50:18 10° SW 19:53:05 29° SW 19:53:05 29° SW
